Time,TemperatureF,DewpointF,PressureIn,WindDirection,WindDirectionDegrees,WindSpeedMPH,WindSpeedGustMPH,Humidity,HourlyPrecipIn,Conditions,Clouds,dailyrainin,SoftwareType,DateUTC
2013-11-16 00:08:00,37.5,33.0,29.86,SSW,198,1.0,-999.0,83,-99.99,,,0.00,weatherlink.com 1.10,2013-11-16 06:08:00,
2013-11-16 00:23:00,37.5,33.0,29.87,SSW,200,1.0,-999.0,83,-99.99,,,0.00,weatherlink.com 1.10,2013-11-16 06:23:00,
2013-11-16 00:38:00,37.3,33.0,29.86,SSW,198,1.0,-999.0,84,-99.99,,,0.00,weatherlink.com 1.10,2013-11-16 06:38:00,
2013-11-16 00:53:00,37.1,33.0,29.85,SSW,192,1.0,-999.0,84,-99.99,,,0.00,weatherlink.com 1.10,2013-11-16 06:53:00,
2013-11-16 01:08:00,36.8,33.0,29.85,South,188,2.0,-999.0,85,-99.99,,,0.00,weatherlink.com 1.10,2013-11-16 07:08:00,
2013-11-16 01:23:00,36.5,33.0,29.85,SSW,199,1.0,-999.0,86,-99.99,,,0.00,weatherlink.com 1.10,2013-11-16 07:23:00,
2013-11-16 01:38:00,36.4,33.0,29.85,SSW,198,1.0,-999.0,86,-99.99,,,0.00,weatherlink.com 1.10,2013-11-16 07:38:00,
2013-11-16 01:53:00,36.2,33.0,29.85,SSW,209,1.0,-999.0,87,-99.99,,,0.00,weatherlink.com 1.10,2013-11-16 07:53:00,
2013-11-16 02:08:00,36.1,33.0,29.86,South,190,2.0,-999.0,87,-99.99,,,0.00,weatherlink.com 1.10,2013-11-16 08:08:00,
2013-11-16 02:23:00,36.1,33.0,29.86,SSW,198,1.0,-999.0,88,-99.99,,,0.00,weatherlink.com 1.10,2013-11-16 08:23:00,
2013-11-16 02:38:00,36.2,33.0,29.85,South,184,2.0,-999.0,87,-99.99,,,0.00,weatherlink.com 1.10,2013-11-16 08:38:00,
2013-11-16 02:53:00,36.4,33.0,29.84,SSW,196,2.0,-999.0,88,-99.99,,,0.00,weatherlink.com 1.10,2013-11-16 08:53:00,
2013-11-16 03:08:00,36.7,33.0,29.84,SSW,213,3.0,-999.0,87,-99.99,,,0.00,weatherlink.com 1.10,2013-11-16 09:08:00,
2013-11-16 03:23:00,36.7,34.0,29.83,South,175,4.0,-999.0,88,-99.99,,,0.00,weatherlink.com 1.10,2013-11-16 09:23:00,
2013-11-16 03:38:00,36.9,33.0,29.83,South,170,0.0,-999.0,87,-99.99,,,0.00,weatherlink.com 1.10,2013-11-16 09:38:00,
2013-11-16 03:54:00,36.9,33.0,29.82,South,180,2.0,-999.0,87,-99.99,,,0.00,weatherlink.com 1.10,2013-11-16 09:54:00,
2013-11-16 04:09:00,37.0,34.0,29.82,SW,229,2.0,-999.0,87,-99.99,,,0.00,weatherlink.com 1.10,2013-11-16 10:09:00,
2013-11-16 04:24:00,36.9,34.0,29.82,SSW,196,2.0,-999.0,88,-99.99,,,0.00,weatherlink.com 1.10,2013-11-16 10:24:00,
2013-11-16 04:39:00,37.1,34.0,29.82,SSW,210,3.0,-999.0,87,-99.99,,,0.00,weatherlink.com 1.10,2013-11-16 10:39:00,
2013-11-16 04:54:00,37.0,34.0,29.80,South,183,4.0,-999.0,88,-99.99,,,0.00,weatherlink.com 1.10,2013-11-16 10:54:00,
2013-11-16 05:09:00,36.8,34.0,29.80,SW,220,6.0,-999.0,88,-99.99,,,0.00,weatherlink.com 1.10,2013-11-16 11:09:00,
2013-11-16 05:24:00,36.7,34.0,29.79,South,189,9.0,-999.0,89,-99.99,,,0.00,weatherlink.com 1.10,2013-11-16 11:24:00,
2013-11-16 05:39:00,36.6,34.0,29.79,SW,219,3.0,-999.0,89,-99.99,,,0.00,weatherlink.com 1.10,2013-11-16 11:39:00,
2013-11-16 05:54:00,36.6,34.0,29.78,SW,236,6.0,-999.0,89,-99.99,,,0.00,weatherlink.com 1.10,2013-11-16 11:54:00,
2013-11-16 06:09:00,36.9,34.0,29.78,SW,227,6.0,-999.0,90,-99.99,,,0.00,weatherlink.com 1.10,2013-11-16 12:09:00,
2013-11-16 06:24:00,37.5,35.0,29.77,SW,224,1.0,-999.0,90,-99.99,,,0.00,weatherlink.com 1.10,2013-11-16 12:24:00,
2013-11-16 06:39:00,37.9,35.0,29.77,SSW,194,7.0,-999.0,90,-99.99,,,0.00,weatherlink.com 1.10,2013-11-16 12:39:00,
2013-11-16 06:54:00,38.1,36.0,29.77,WSW,250,6.0,-999.0,90,-99.99,,,0.00,weatherlink.com 1.10,2013-11-16 12:54:00,
2013-11-16 07:09:00,38.3,36.0,29.77,SSW,195,5.0,-999.0,91,-99.99,,,0.00,weatherlink.com 1.10,2013-11-16 13:09:00,
2013-11-16 07:24:00,38.5,36.0,29.77,SW,231,1.0,-999.0,91,-99.99,,,0.00,weatherlink.com 1.10,2013-11-16 13:24:00,
2013-11-16 07:39:00,38.6,37.0,29.76,SW,229,1.0,-999.0,92,-99.99,,,0.00,weatherlink.com 1.10,2013-11-16 13:39:00,
2013-11-16 07:54:00,38.7,37.0,29.75,SSW,211,5.0,-999.0,93,-99.99,,,0.00,weatherlink.com 1.10,2013-11-16 13:54:00,
2013-11-16 08:09:00,38.9,37.0,29.74,SW,236,1.0,-999.0,93,-99.99,,,0.00,weatherlink.com 1.10,2013-11-16 14:09:00,
2013-11-16 08:24:00,39.1,38.0,29.74,SSW,205,6.0,-999.0,94,-99.99,,,0.00,weatherlink.com 1.10,2013-11-16 14:24:00,
2013-11-16 08:39:00,39.5,38.0,29.74,SW,218,6.0,-999.0,94,-99.99,,,0.00,weatherlink.com 1.10,2013-11-16 14:39:00,
2013-11-16 08:54:00,39.8,38.0,29.74,South,190,2.0,-999.0,94,-99.99,,,0.00,weatherlink.com 1.10,2013-11-16 14:54:00,
2013-11-16 09:09:00,40.2,39.0,29.74,SSW,209,2.0,-999.0,95,-99.99,,,0.00,weatherlink.com 1.10,2013-11-16 15:09:00,
2013-11-16 09:24:00,40.4,39.0,29.74,SW,219,2.0,-999.0,95,-99.99,,,0.00,weatherlink.com 1.10,2013-11-16 15:24:00,
2013-11-16 09:39:00,40.7,39.0,29.73,SSW,196,0.0,-999.0,95,-99.99,,,0.00,weatherlink.com 1.10,2013-11-16 15:39:00,
2013-11-16 09:54:00,41.1,40.0,29.72,SSE,154,0.0,-999.0,95,-99.99,,,0.00,weatherlink.com 1.10,2013-11-16 15:54:00,
2013-11-16 10:09:00,41.9,41.0,29.71,SSW,209,4.0,-999.0,95,-99.99,,,0.00,weatherlink.com 1.10,2013-11-16 16:09:00,
2013-11-16 10:24:00,42.9,42.0,29.71,SW,221,3.0,-999.0,95,-99.99,,,0.00,weatherlink.com 1.10,2013-11-16 16:24:00,
2013-11-16 10:40:00,43.9,43.0,29.70,SW,229,3.0,-999.0,95,-99.99,,,0.00,weatherlink.com 1.10,2013-11-16 16:40:00,
2013-11-16 10:55:00,44.3,43.0,29.68,SW,232,4.0,-999.0,95,-99.99,,,0.00,weatherlink.com 1.10,2013-11-16 16:55:00,
2013-11-16 11:10:00,44.8,44.0,29.67,South,170,11.0,-999.0,95,-99.99,,,0.00,weatherlink.com 1.10,2013-11-16 17:10:00,
2013-11-16 11:25:00,45.3,44.0,29.66,SSW,212,5.0,-999.0,96,-99.99,,,0.00,weatherlink.com 1.10,2013-11-16 17:25:00,
2013-11-16 11:40:00,45.7,44.0,29.65,South,191,7.0,-999.0,95,-99.99,,,0.00,weatherlink.com 1.10,2013-11-16 17:40:00,
2013-11-16 11:55:00,46.2,45.0,29.63,SSW,203,4.0,-999.0,96,-99.99,,,0.00,weatherlink.com 1.10,2013-11-16 17:55:00,
2013-11-16 12:10:00,46.7,46.0,29.62,South,180,7.0,-999.0,96,-99.99,,,0.00,weatherlink.com 1.10,2013-11-16 18:10:00,
2013-11-16 12:25:00,47.1,46.0,29.61,SW,229,4.0,-999.0,95,-99.99,,,0.00,weatherlink.com 1.10,2013-11-16 18:25:00,
2013-11-16 12:40:00,47.6,46.0,29.60,SSE,165,12.0,-999.0,95,-99.99,,,0.01,weatherlink.com 1.10,2013-11-16 18:40:00,
2013-11-16 12:55:00,47.9,47.0,29.59,SSW,209,6.0,-999.0,96,-99.99,,,0.01,weatherlink.com 1.10,2013-11-16 18:55:00,
2013-11-16 13:10:00,48.3,47.0,29.58,SW,227,9.0,-999.0,95,-99.99,,,0.01,weatherlink.com 1.10,2013-11-16 19:10:00,
2013-11-16 13:25:00,48.7,47.0,29.57,SW,214,10.0,-999.0,95,-99.99,,,0.01,weatherlink.com 1.10,2013-11-16 19:25:00,
2013-11-16 13:40:00,49.1,48.0,29.56,WSW,248,7.0,-999.0,96,-99.99,,,0.01,weatherlink.com 1.10,2013-11-16 19:40:00,
2013-11-16 13:55:00,49.5,48.0,29.56,South,189,5.0,-999.0,95,-99.99,,,0.03,weatherlink.com 1.10,2013-11-16 19:55:00,
2013-11-16 14:10:00,49.9,49.0,29.55,South,184,3.0,-999.0,96,-99.99,,,0.03,weatherlink.com 1.10,2013-11-16 20:10:00,
2013-11-16 14:25:00,50.1,49.0,29.54,SSW,194,5.0,-999.0,95,-99.99,,,0.03,weatherlink.com 1.10,2013-11-16 20:25:00,
2013-11-16 14:40:00,50.4,49.0,29.52,West,259,9.0,-999.0,95,-99.99,,,0.05,weatherlink.com 1.10,2013-11-16 20:40:00,
2013-11-16 14:55:00,50.6,49.0,29.52,SW,219,6.0,-999.0,95,-99.99,,,0.05,weatherlink.com 1.10,2013-11-16 20:55:00,
2013-11-16 15:10:00,50.8,50.0,29.51,SW,232,5.0,-999.0,95,-99.99,,,0.05,weatherlink.com 1.10,2013-11-16 21:10:00,
2013-11-16 15:25:00,50.9,50.0,29.49,South,186,3.0,-999.0,95,-99.99,,,0.05,weatherlink.com 1.10,2013-11-16 21:25:00,
2013-11-16 15:40:00,51.2,50.0,29.51,SW,216,4.0,-999.0,95,-99.99,,,0.06,weatherlink.com 1.10,2013-11-16 21:40:00,
2013-11-16 15:55:00,51.2,50.0,29.48,SW,221,6.0,-999.0,95,-99.99,,,0.09,weatherlink.com 1.10,2013-11-16 21:55:00,
2013-11-16 16:10:00,51.6,50.0,29.46,SW,234,19.0,-999.0,95,-99.99,,,0.13,weatherlink.com 1.10,2013-11-16 22:10:00,
2013-11-16 16:25:00,51.8,51.0,29.45,SSW,193,4.0,-999.0,95,-99.99,,,0.14,weatherlink.com 1.10,2013-11-16 22:25:00,
2013-11-16 16:41:00,52.0,51.0,29.43,South,189,8.0,-999.0,95,-99.99,,,0.14,weatherlink.com 1.10,2013-11-16 22:41:00,
2013-11-16 16:56:00,52.3,51.0,29.43,South,183,8.0,-999.0,95,-99.99,,,0.15,weatherlink.com 1.10,2013-11-16 22:56:00,
2013-11-16 17:11:00,52.7,51.0,29.42,South,179,12.0,-999.0,95,-99.99,,,0.15,weatherlink.com 1.10,2013-11-16 23:11:00,
2013-11-16 17:26:00,53.0,52.0,29.41,SW,227,11.0,-999.0,95,-99.99,,,0.18,weatherlink.com 1.10,2013-11-16 23:26:00,
2013-11-16 17:41:00,53.5,52.0,29.41,SW,229,19.0,-999.0,95,-99.99,,,0.19,weatherlink.com 1.10,2013-11-16 23:41:00,
2013-11-16 17:56:00,53.3,52.0,29.47,West,272,10.0,-999.0,94,-99.99,,,0.35,weatherlink.com 1.10,2013-11-16 23:56:00,
2013-11-16 18:11:00,52.7,51.0,29.46,West,263,3.0,-999.0,93,-99.99,,,0.57,weatherlink.com 1.10,2013-11-17 00:11:00,
2013-11-16 18:26:00,51.9,50.0,29.45,WSW,255,7.0,-999.0,93,-99.99,,,0.63,weatherlink.com 1.10,2013-11-17 00:26:00,
2013-11-16 18:41:00,51.7,50.0,29.45,WSW,254,4.0,-999.0,94,-99.99,,,0.67,weatherlink.com 1.10,2013-11-17 00:41:00,
2013-11-16 18:56:00,51.7,50.0,29.45,SW,232,4.0,-999.0,94,-99.99,,,0.98,weatherlink.com 1.10,2013-11-17 00:56:00,
2013-11-16 19:11:00,51.9,51.0,29.44,West,259,0.0,-999.0,95,-99.99,,,1.18,weatherlink.com 1.10,2013-11-17 01:11:00,
2013-11-16 19:26:00,52.1,51.0,29.44,West,261,0.0,-999.0,95,-99.99,,,1.27,weatherlink.com 1.10,2013-11-17 01:26:00,
2013-11-16 19:41:00,52.7,52.0,29.43,South,190,2.0,-999.0,96,-99.99,,,1.28,weatherlink.com 1.10,2013-11-17 01:41:00,
2013-11-16 19:56:00,53.8,52.0,29.42,SSW,194,14.0,-999.0,95,-99.99,,,1.34,weatherlink.com 1.10,2013-11-17 01:56:00,
2013-11-16 20:11:00,55.4,54.0,29.43,SW,232,21.0,-999.0,96,-99.99,,,1.35,weatherlink.com 1.10,2013-11-17 02:11:00,
2013-11-16 20:26:00,55.8,54.0,29.44,SW,217,11.0,-999.0,95,-99.99,,,1.35,weatherlink.com 1.10,2013-11-17 02:26:00,
2013-11-16 20:41:00,55.9,54.0,29.44,SW,235,6.0,-999.0,94,-99.99,,,1.35,weatherlink.com 1.10,2013-11-17 02:41:00,
2013-11-16 20:56:00,56.0,54.0,29.44,SW,234,8.0,-999.0,94,-99.99,,,1.35,weatherlink.com 1.10,2013-11-17 02:56:00,
2013-11-16 21:11:00,56.4,55.0,29.44,SW,227,7.0,-999.0,93,-99.99,,,1.35,weatherlink.com 1.10,2013-11-17 03:11:00,
2013-11-16 21:26:00,56.9,55.0,29.43,WSW,244,9.0,-999.0,92,-99.99,,,1.35,weatherlink.com 1.10,2013-11-17 03:26:00,
2013-11-16 21:41:00,56.8,55.0,29.44,SW,225,7.0,-999.0,92,-99.99,,,1.35,weatherlink.com 1.10,2013-11-17 03:41:00,
2013-11-16 21:56:00,57.0,55.0,29.43,SW,220,19.0,-999.0,91,-99.99,,,1.35,weatherlink.com 1.10,2013-11-17 03:56:00,
2013-11-16 22:11:00,57.0,55.0,29.43,SW,221,4.0,-999.0,91,-99.99,,,1.35,weatherlink.com 1.10,2013-11-17 04:11:00,
2013-11-16 22:26:00,57.1,55.0,29.43,SW,221,5.0,-999.0,91,-99.99,,,1.35,weatherlink.com 1.10,2013-11-17 04:26:00,
2013-11-16 22:41:00,57.4,55.0,29.44,SW,229,6.0,-999.0,90,-99.99,,,1.35,weatherlink.com 1.10,2013-11-17 04:41:00,
2013-11-16 22:56:00,57.5,55.0,29.44,South,182,5.0,-999.0,90,-99.99,,,1.35,weatherlink.com 1.10,2013-11-17 04:56:00,
2013-11-16 23:11:00,57.4,55.0,29.44,SW,227,10.0,-999.0,90,-99.99,,,1.35,weatherlink.com 1.10,2013-11-17 05:11:00,
2013-11-16 23:26:00,57.2,54.0,29.45,WSW,242,11.0,-999.0,90,-99.99,,,1.35,weatherlink.com 1.10,2013-11-17 05:26:00,
2013-11-16 23:41:00,57.4,55.0,29.44,SW,226,9.0,-999.0,90,-99.99,,,1.35,weatherlink.com 1.10,2013-11-17 05:41:00,
2013-11-16 23:56:00,57.5,55.0,29.44,SW,231,7.0,-999.0,90,-99.99,,,1.35,weatherlink.com 1.10,2013-11-17 05:56:00,